Regional Weather Roundup
Issued by NWS

Home | Current Version | Previous Version | Text Only | Print | Product List | Glossary Off
Versions: 1 2 3 4 5 6 7 8 9 10 11 12 13 14 15 16 17 18 19 20 21 22 23 24 25 26 27 28 29 30 31 32 33 34 35 36 37 38 39 40 41 42 43 44 45 46 47 48 49 50

000
ASUS43 KTOP 232208
RWRKS

WEATHER ROUNDUP FOR KANSAS
NATIONAL WEATHER SERVICE GOODLAND KS
500 PM CDT FRI JUN 23 2017

NOTE:  "FAIR" INDICATES FEW OR NO CLOUDS BELOW 12,000 FEET WITH NO
SIGNIFICANT WEATHER AND/OR OBSTRUCTIONS TO VISIBILITY.

KSZ001>006-013>018-027>032-041>047-232300-
NORTHWEST KANSAS

CITY           SKY/WX    TMP DP  RH WIND       PRES   REMARKS
GOODLAND       CLOUDY    70  49  47 W7        30.17F
HAYS           CLOUDY    76  48  37 N6        30.09F
HILL CITY      MOSUNNY   82  47  29 NW9       30.08F
RUSSELL        SUNNY     79  46  31 VRB7G16   30.06F
$$

KSZ061>065-074>080-084>089-232300-
SOUTHWEST KANSAS

CITY           SKY/WX    TMP DP  RH WIND       PRES   REMARKS
DODGE CITY     PTSUNNY   73  47  39 NE15      30.12F
ELKHART          N/A     71  42  35 N8          N/A
GARDEN CITY    MOSUNNY   74  45  35 NE14G22   30.14F
GREAT BEND     PTSUNNY   75  47  36 N6        30.09F
PRATT          PTSUNNY   70  44  39 NE12      30.09S
$$

KSZ066>073-081>083-090>101-232300-
SOUTHEAST KANSAS

CITY           SKY/WX    TMP DP  RH WIND       PRES   REMARKS
CHANUTE        SUNNY     85  52  32 N14G21    29.95R
COFFEYVILLE    SUNNY     88  55  32 N16       29.90S
HUTCHINSON     MOSUNNY   80  47  31 N10G20    30.04F
MEDICINE LODGE   N/A     78  48  34 N16G23    30.04S
NEWTON         SUNNY     79  48  33 N15       30.03F
PARSONS        SUNNY     85  56  37 N15G25    29.93F
WICHITA INTL   CLOUDY    79  52  38 N14       30.01R
WICHITA JABRA  PTSUNNY   80  52  37 N14G23    30.01S
WICHITA MCCONL CLOUDY    76  51  42 NE14      30.01S
WINFIELD       CLOUDY    77  55  46 N13       30.01R
$$

KSZ007>012-019>026-033>040-048>060-102>105-232300-
NORTHEAST KANSAS

CITY           SKY/WX    TMP DP  RH WIND       PRES   REMARKS
CONCORDIA      SUNNY     79  49  34 NW8G17    30.04F
EMPORIA        SUNNY     79  51  37 N8        30.00R
LAWRENCE       SUNNY     79  54  41 NW14      29.97S
MANHATTAN      SUNNY     81  50  33 N12G17    30.01S
MARYSVILLE     SUNNY     77  52  41 NW15G24   30.02R
OLATHE IND     SUNNY     79  54  41 NW17      29.97S
OLATHE EXE     SUNNY     79  50  36 N15G21    29.96S
SALINA         SUNNY     83  45  26 N9        30.03F
TOPEKA BILLARD MOSUNNY   79  55  43 NW10      29.99S
TOPEKA FORBES  MOSUNNY   80  52  37 N10       29.99S
$$



USA.gov is the U.S. government's official web portal to all federal, state and local government web resources and services.